Home > Weather > Colchester County > Past weeks

Flag for Canada Past Weather in Colchester County, Nova Scotia, Canada — Yesterday and Last 2 Weeks

Now
64 °F

Fog.


Feels Like: 64 °F
Forecast: 63 / 72 °F
Wind: 9 mph from South

Location: Halifax International Airport

Current Time: Jun 29, 2016 at 3:11:56 PM

Latest Report: Jun 29, 2016 at 2:00 PM


Visibility: 0 mi

Pressure: 30.06 "Hg

Humidity: 100%

Dew Point: 64 °F

Location of Colchester CountyLocation

Past Weather in Colchester County — Graph

°F

Colchester County Temperature Yesterday

Maximum temperature yesterday: 75 °F (at 12:00 PM)
Minimum temperature yesterday: 55 °F (at 5:00 AM)
Average temperature yesterday: 66 °F

High & Low Weather Summary for the Past Weeks

 TemperatureHumidityPressure
High81 °F (Jun 19, 3:00 PM)100% (Jun 15, 3:00 AM)30.28 "Hg (Jun 15, 3:00 AM)
Low41 °F (Jun 17, 5:00 AM)21% (Jun 19, 12:00 PM)29.52 "Hg (Jun 14, 2:00 PM)
Average61 °F71%29.97 "Hg
* Reported Jun 14 2:00 PM — Jun 29 2:00 PM, Colchester County, Weather by CustomWeather, © 2016

Note: Actual official high and low records may vary slightly from our data, if they occured in-between our weather recording intervals... More about our weather records

Advertising

Colchester County Weather History for the Previous 24 Hours

Scroll right to see more
 ConditionsComfort  
Time TempWeatherWind HumidityBarometerVisibility
2:00 PM
Wed, Jun 29
64 °FFog.9 mph100%30.06 "Hg1 mi
1:00 PM66 °FSprinkles. Fog.9 mph94%30.07 "Hg1 mi
12:00 PM68 °FSandstorm.10 mph94%30.08 "Hg2 mi
11:00 AM66 °FFog.9 mph100%30.07 "Hg2 mi
10:00 AM66 °FFog.8 mph100%30.08 "Hg1 mi
9:00 AM63 °FFog.7 mph100%30.09 "Hg1 mi
8:00 AM64 °FFog.9 mph100%30.08 "Hg1 mi
7:00 AM63 °FFog.8 mph100%30.06 "Hg0 mi
6:00 AM63 °FDrizzle. Fog.7 mph100%30.06 "Hg0 mi
5:00 AM63 °FDrizzle. Fog.8 mph100%30.07 "Hg0 mi
3:00 AM63 °FDrizzle. Fog.9 mph100%30.09 "Hg0 mi
2:00 AM63 °FDrizzle. Fog.8 mph100%30.09 "Hg0 mi
1:00 AM63 °FDrizzle. Fog.9 mph100%30.12 "Hg0 mi
12:00 AM63 °FDrizzle. Fog.8 mph100%30.13 "Hg0 mi
11:00 PM
Tue, Jun 28
64 °FDrizzle. Fog.6 mph100%30.14 "Hg1 mi
10:00 PM66 °FDrizzle. Fog.7 mph94%30.13 "Hg1 mi
9:00 PM68 °FDrizzle. Low clouds.6 mph94%30.11 "Hg10 mi
8:00 PM68 °FSprinkles. Low clouds.13 mph94%30.11 "Hg12 mi
7:00 PM70 °FLow clouds.12 mph88%30.11 "Hg15 mi
6:00 PM70 °FMostly cloudy.12 mph88%30.11 "Hg15 mi
5:00 PM75 °FBroken clouds.18 mph61%30.10 "Hg15 mi
4:00 PM75 °FPartly sunny.17 mph57%30.11 "Hg15 mi
3:00 PM75 °FPartly sunny.21 mph50%30.11 "Hg15 mi
Weather by CustomWeather, © 2016

See weather overviewHow to use our weather pages